When you browse on this site, cookies collect data to enhance your experience and personalize the content and advertising you see.
Visit our Privacy Policy to learn more. By continuing to use the site, you agree to this use of cookies and data.

Hourly Weather Qala i Naw

Today, 10 August, Monday

Time Temperature Precipitation Wind Pressure Humidity
00:00 +21°C° 0 mm 2 mps 676 mmHg 37%
01:00 +20°C° 0 mm 2 mps 676 mmHg 39%
02:00 +20°C° 0 mm 1 mps 676 mmHg 41%
03:00 +19°C° 0 mm 1 mps 676 mmHg 44%
04:00 +18°C° 0 mm 1 mps 675 mmHg 47%
05:00 +19°C° 0 mm 0 mps 676 mmHg 40%
06:00 +22°C° 0 mm 0 mps 677 mmHg 33%
07:00 +24°C° 0 mm 0 mps 678 mmHg 27%
08:00 +28°C° 0 mm 1 mps 678 mmHg 24%
09:00 +30°C° 0 mm 2 mps 678 mmHg 21%
10:00 +33°C° 0 mm 3 mps 678 mmHg 19%
11:00 +34°C° 0 mm 4 mps 678 mmHg 17%
12:00 +35°C° 0 mm 5 mps 678 mmHg 15%
13:00 +38°C° 0 mm 6 mps 678 mmHg 12%
14:00 +38°C° 0 mm 7 mps 678 mmHg 12%
15:00 +38°C° 0 mm 7 mps 678 mmHg 12%
16:00 +38°C° 0 mm 8 mps 678 mmHg 11%
17:00 +35°C° 0 mm 7 mps 678 mmHg 14%
18:00 +33°C° 0 mm 6 mps 678 mmHg 16%
19:00 +30°C° 0 mm 5 mps 678 mmHg 18%
20:00 +28°C° 0 mm 4 mps 678 mmHg 21%
21:00 +26°C° 0 mm 3 mps 678 mmHg 24%
22:00 +25°C° 0 mm 3 mps 678 mmHg 26%
23:00 +24°C° 0 mm 2 mps 678 mmHg 28%

Tomorrow, 11 August, Tuesday

Time Temperature Precipitation Wind Pressure Humidity
00:00 +23°C° 0 mm 2 mps 677 mmHg 30%
01:00 +21°C° 0 mm 1 mps 677 mmHg 32%
02:00 +21°C° 0 mm 1 mps 677 mmHg 33%
03:00 +21°C° 0 mm 1 mps 677 mmHg 34%
04:00 +21°C° 0 mm 1 mps 677 mmHg 35%
05:00 +23°C° 0 mm 2 mps 678 mmHg 30%
06:00 +25°C° 0 mm 2 mps 678 mmHg 25%
07:00 +28°C° 0 mm 2 mps 679 mmHg 21%
08:00 +30°C° 0 mm 3 mps 679 mmHg 19%
09:00 +33°C° 0 mm 5 mps 679 mmHg 16%
10:00 +35°C° 0 mm 7 mps 679 mmHg 14%
11:00 +37°C° 0 mm 8 mps 679 mmHg 13%
12:00 +38°C° 0 mm 9 mps 679 mmHg 12%
13:00 +39°C° 0 mm 10 mps 679 mmHg 11%
14:00 +39°C° 0 mm 10 mps 678 mmHg 11%
15:00 +39°C° 0 mm 11 mps 678 mmHg 11%
16:00 +39°C° 0 mm 11 mps 678 mmHg 11%
17:00 +37°C° 0 mm 10 mps 678 mmHg 14%
18:00 +34°C° 0 mm 8 mps 678 mmHg 16%
19:00 +30°C° 0 mm 7 mps 678 mmHg 18%
20:00 +29°C° 0 mm 6 mps 678 mmHg 21%
21:00 +27°C° 0 mm 5 mps 678 mmHg 24%
22:00 +25°C° 0 mm 3 mps 678 mmHg 27%
23:00 +24°C° 0 mm 3 mps 677 mmHg 29%

Day after tomorrow, 12 August, Wednesday

Time Temperature Precipitation Wind Pressure Humidity
00:00 +21°C° 0 mm 2 mps 677 mmHg 32%
01:00 +21°C° 0 mm 1 mps 677 mmHg 34%
02:00 +20°C° 0 mm 1 mps 677 mmHg 36%
03:00 +20°C° 0 mm 1 mps 676 mmHg 38%
04:00 +19°C° 0 mm 1 mps 676 mmHg 40%
05:00 +21°C° 0 mm 1 mps 677 mmHg 34%
06:00 +24°C° 0 mm 1 mps 677 mmHg 29%
07:00 +26°C° 0 mm 1 mps 678 mmHg 23%
08:00 +29°C° 0 mm 2 mps 678 mmHg 20%
09:00 +31°C° 0 mm 3 mps 678 mmHg 17%
10:00 +34°C° 0 mm 4 mps 679 mmHg 14%
11:00 +35°C° 0 mm 5 mps 678 mmHg 12%
12:00 +38°C° 0 mm 7 mps 678 mmHg 10%
13:00 +39°C° 0 mm 8 mps 678 mmHg 8%
14:00 +39°C° 0 mm 9 mps 678 mmHg 8%
15:00 +39°C° 0 mm 9 mps 678 mmHg 7%
16:00 +39°C° 0 mm 10 mps 678 mmHg 7%
17:00 +35°C° 0 mm 8 mps 677 mmHg 8%
18:00 +32°C° 0 mm 7 mps 677 mmHg 10%
19:00 +28°C° 0 mm 5 mps 677 mmHg 11%
20:00 +27°C° 0 mm 4 mps 677 mmHg 13%
21:00 +25°C° 0 mm 3 mps 677 mmHg 14%
22:00 +23°C° 0 mm 1 mps 677 mmHg 16%
23:00 +22°C° 0 mm 1 mps 677 mmHg 16%

13 August, Thursday

Time Temperature Precipitation Wind Pressure Humidity
00:00 +22°C° 0 mm 1 mps 676 mmHg 17%
01:00 +21°C° 0 mm 1 mps 676 mmHg 18%
02:00 +21°C° 0 mm 1 mps 676 mmHg 19%
03:00 +20°C° 0 mm 1 mps 676 mmHg 20%
04:00 +19°C° 0 mm 1 mps 675 mmHg 22%
05:00 +22°C° 0 mm 1 mps 676 mmHg 18%
06:00 +25°C° 0 mm 1 mps 677 mmHg 15%
07:00 +26°C° 0 mm 0 mps 678 mmHg 11%
08:00 +30°C° 0 mm 1 mps 678 mmHg 10%
09:00 +32°C° 0 mm 2 mps 678 mmHg 9%
10:00 +35°C° 0 mm 3 mps 678 mmHg 8%
11:00 +37°C° 0 mm 4 mps 678 mmHg 9%
12:00 +39°C° 0 mm 6 mps 678 mmHg 10%
13:00 +41°C° 0 mm 8 mps 678 mmHg 10%
14:00 +42°C° 0 mm 9 mps 677 mmHg 11%
15:00 +42°C° 0 mm 9 mps 677 mmHg 12%
16:00 +40°C° 0 mm 10 mps 677 mmHg 13%
17:00 +38°C° 0 mm 9 mps 677 mmHg 15%
18:00 +35°C° 0 mm 7 mps 677 mmHg 18%
19:00 +32°C° 0 mm 5 mps 677 mmHg 21%
20:00 +30°C° 0 mm 4 mps 677 mmHg 23%
21:00 +28°C° 0 mm 3 mps 676 mmHg 26%
22:00 +26°C° 0 mm 2 mps 676 mmHg 29%
23:00 +25°C° 0 mm 2 mps 676 mmHg 30%

14 August, Friday

Time Temperature Precipitation Wind Pressure Humidity
00:00 +25°C° 0 mm 2 mps 676 mmHg 31%
01:00 +24°C° 0 mm 2 mps 676 mmHg 32%
02:00 +23°C° 0 mm 1 mps 675 mmHg 34%
03:00 +23°C° 0 mm 1 mps 675 mmHg 36%
04:00 +22°C° 0 mm 1 mps 675 mmHg 38%
05:00 +24°C° 0 mm 1 mps 675 mmHg 33%
06:00 +27°C° 0 mm 1 mps 676 mmHg 28%
07:00 +29°C° 0 mm 1 mps 677 mmHg 23%
08:00 +31°C° 0 mm 2 mps 677 mmHg 20%
09:00 +34°C° 0 mm 3 mps 677 mmHg 18%
10:00 +37°C° 0 mm 4 mps 677 mmHg 15%
11:00 +39°C° 0 mm 5 mps 677 mmHg 14%
12:00 +40°C° 0 mm 6 mps 677 mmHg 13%
13:00 +43°C° 0 mm 7 mps 677 mmHg 11%
14:00 +43°C° 0 mm 8 mps 677 mmHg 11%
15:00 +43°C° 0 mm 9 mps 676 mmHg 11%
16:00 +42°C° 0 mm 10 mps 676 mmHg 11%
17:00 +39°C° 0 mm 8 mps 676 mmHg 14%
18:00 +35°C° 0 mm 6 mps 676 mmHg 16%
19:00 +32°C° 0 mm 4 mps 675 mmHg 19%
20:00 +29°C° 0 mm 4 mps 675 mmHg 21%
21:00 +28°C° 0 mm 3 mps 675 mmHg 23%
22:00 +26°C° 0 mm 2 mps 675 mmHg 25%
23:00 +26°C° 0 mm 2 mps 675 mmHg 25%

15 August, Saturday

Time Temperature Precipitation Wind Pressure Humidity
00:00 +25°C° 0 mm 2 mps 675 mmHg 26%
01:00 +25°C° 0 mm 2 mps 674 mmHg 26%
02:00 +24°C° 0 mm 2 mps 674 mmHg 27%
03:00 +23°C° 0 mm 1 mps 674 mmHg 29%
04:00 +23°C° 0 mm 1 mps 674 mmHg 30%
05:00 +25°C° 0 mm 1 mps 675 mmHg 26%
06:00 +28°C° 0 mm 1 mps 675 mmHg 22%
07:00 +30°C° 0 mm 1 mps 676 mmHg 18%
08:00 +32°C° 0 mm 2 mps 676 mmHg 16%
09:00 +36°C° 0 mm 2 mps 676 mmHg 14%
10:00 +38°C° 0 mm 3 mps 676 mmHg 12%
11:00 +40°C° 0 mm 5 mps 676 mmHg 11%
12:00 +42°C° 0 mm 6 mps 676 mmHg 10%
13:00 +45°C° 0 mm 7 mps 676 mmHg 9%
14:00 +44°C° 0 mm 8 mps 676 mmHg 8%
15:00 +44°C° 0 mm 9 mps 676 mmHg 8%
16:00 +44°C° 0 mm 11 mps 676 mmHg 8%
17:00 +42°C° 0 mm 9 mps 675 mmHg 10%
18:00 +38°C° 0 mm 7 mps 675 mmHg 12%
19:00 +34°C° 0 mm 5 mps 675 mmHg 13%
20:00 +32°C° 0 mm 4 mps 675 mmHg 16%
21:00 +29°C° 0 mm 3 mps 675 mmHg 18%
22:00 +27°C° 0 mm 2 mps 675 mmHg 20%
23:00 +26°C° 0 mm 2 mps 675 mmHg 22%
Show more